Appleton, MN

4:39 PM CST on November 19, 2019 (GMT -0600)
Appleton Municipal

Weather History for KAQP - August, 2019

Change the Weather History Date:

Friday, August 9, 2019

  Actual Average Record
Temperature  
Mean Temperature 64 °F -  
Max Temperature 77 °F 77 °F 89 °F (2007)
Min Temperature 51 °F 55 °F 51 °F (2019)
Degree Days  
Heating Degree Days 1    
Growing Degree Days 14 (Base 50)    
Moisture  
Dew Point 54 °F    
Average Humidity 70    
Maximum Humidity 94    
Minimum Humidity 41    
Precipitation  
Precipitation 0.00 in - - ()
Sea Level Pressure  
Sea Level Pressure 29.99 in    
Wind  
Wind Speed 1 mph (SE)    
Max Wind Speed 12 mph    
Max Gust Speed -    
Visibility 10 miles    
Events Rain    
Averages and records for this station are not official NWS values.
T = Trace of Precipitation, MM = Missing Value Source: NWS Daily Summary

Daily Weather History Graph

Daily Weather History Graph

Search for Another Location

Airport or City:

Astronomy

Aug. 09, 2019 Rise Set
Actual Time 6:17 AM CDT 8:40 PM CDT
Civil Twilight 5:44 AM CDT 9:13 PM CDT
Nautical Twilight 5:03 AM CDT 9:53 PM CDT
Astronomical Twilight 4:17 AM CDT 10:39 PM CDT
Moon 4:26 PM CDT (8/9) 1:14 AM CDT (8/9)
Length of Visible Light 15h 28m
Length of Day
14h 22m
Waxing Gibbous, 70% of the Moon is Illuminated
Aug 9
Waxing Gibbous
Aug 15
Full
Aug 23
Last Quarter
Aug 30
New
Sep 5
First Quarter

Hourly Weather History & Observations

Time (CDT) Temp. Dew Point Humidity Pressure Visibility Wind Dir Wind Speed Gust Speed Precip Events Conditions
12:13 AM 57.2 °F 51.8 °F 82% 30.00 in 10.0 mi Calm Calm - N/A   Clear
1:11 AM 55.4 °F 50.0 °F 82% 30.00 in 10.0 mi Calm Calm - N/A   Clear
1:31 AM 53.6 °F 51.8 °F 94% 30.00 in 10.0 mi Calm Calm - N/A   Clear
1:52 AM 53.6 °F 50.0 °F 88% 30.00 in 10.0 mi Calm Calm - N/A   Clear
2:11 AM 53.6 °F 50.0 °F 88% 30.00 in 10.0 mi Calm Calm - N/A   Clear
2:31 AM 53.6 °F 50.0 °F 88% 30.00 in 10.0 mi Calm Calm - N/A   Clear
2:51 AM 53.6 °F 50.0 °F 88% 30.00 in 10.0 mi Calm Calm - N/A   Clear
3:11 AM 53.6 °F 50.0 °F 88% 30.00 in 10.0 mi Calm Calm - N/A   Clear
3:31 AM 51.8 °F 48.2 °F 88% 30.01 in 10.0 mi Calm Calm - N/A   Clear
3:54 AM 53.6 °F 51.8 °F 94% 30.00 in 10.0 mi Calm Calm - N/A   Clear
4:11 AM 53.6 °F 48.2 °F 82% 30.00 in 10.0 mi Calm Calm - N/A   Clear
4:30 AM 53.6 °F 48.2 °F 82% 29.99 in 10.0 mi Calm Calm - N/A   Clear
4:53 AM 53.6 °F 48.2 °F 82% 29.99 in 10.0 mi Calm Calm - N/A   Clear
5:11 AM 51.8 °F 48.2 °F 88% 30.00 in 10.0 mi Calm Calm - N/A   Clear
5:31 AM 53.6 °F 50.0 °F 88% 30.00 in 10.0 mi Calm Calm - N/A   Clear
5:51 AM 53.6 °F 48.2 °F 82% 30.00 in 10.0 mi Calm Calm - N/A   Clear
6:11 AM 51.8 °F 50.0 °F 94% 30.01 in 10.0 mi Calm Calm - N/A   Clear
6:31 AM 53.6 °F 50.0 °F 88% 30.02 in 10.0 mi Calm Calm - N/A   Clear
6:54 AM 55.4 °F 51.8 °F 88% 30.02 in 10.0 mi Calm Calm - N/A   Clear
7:11 AM 55.4 °F 53.6 °F 94% 30.02 in 10.0 mi Calm Calm - N/A   Clear
7:32 AM 57.2 °F 55.4 °F 94% 30.02 in 10.0 mi Calm Calm - N/A   Clear
7:51 AM 60.8 °F 55.4 °F 82% 30.02 in 10.0 mi Calm Calm - N/A   Clear
8:11 AM 60.8 °F 57.2 °F 88% 30.03 in 10.0 mi Calm Calm - N/A   Mostly Cloudy
8:31 AM 62.6 °F 57.2 °F 82% 30.03 in 10.0 mi Calm Calm - N/A   Overcast
8:51 AM 64.4 °F 55.4 °F 73% 30.03 in 10.0 mi Calm Calm - N/A   Scattered Clouds
9:11 AM 66.2 °F 55.4 °F 68% 30.04 in 10.0 mi Calm Calm - N/A   Clear
9:31 AM 66.2 °F 53.6 °F 64% 30.03 in 10.0 mi Calm Calm - N/A   Clear
9:55 AM 68.0 °F 55.4 °F 64% 30.03 in 10.0 mi Calm Calm - N/A   Clear
10:11 AM 68.0 °F 55.4 °F 64% 30.04 in 10.0 mi South 3.5 mph - N/A   Clear
10:32 AM 69.8 °F 53.6 °F 56% 30.03 in 10.0 mi South 6.9 mph - N/A   Clear
11:11 AM 71.6 °F 51.8 °F 50% 30.03 in 10.0 mi South 4.6 mph - N/A   Clear
11:31 AM 73.4 °F 51.8 °F 47% 30.02 in 10.0 mi SE 8.1 mph - N/A   Clear
11:52 AM 73.4 °F 48.2 °F 41% 30.02 in 10.0 mi Calm Calm - N/A   Clear
12:10 PM 75.2 °F 50.0 °F 41% 30.02 in 10.0 mi SSE 8.1 mph - N/A   Clear
12:32 PM 75.2 °F 50.0 °F 41% 30.02 in 10.0 mi SW 8.1 mph - N/A   Clear
12:50 PM 75.2 °F 50.0 °F 41% 30.02 in 10.0 mi South 5.8 mph - N/A   Clear
1:12 PM 75.2 °F 50.0 °F 41% 30.01 in 10.0 mi Calm Calm - N/A   Clear
1:31 PM 75.2 °F 51.8 °F 44% 29.99 in 10.0 mi Calm Calm - N/A   Clear
1:51 PM 75.2 °F 51.8 °F 44% 30.00 in 10.0 mi Calm Calm - N/A   Clear
2:11 PM 75.2 °F 53.6 °F 47% 29.98 in 10.0 mi Calm Calm - N/A   Clear
2:31 PM 77.0 °F 51.8 °F 41% 29.98 in 10.0 mi Calm Calm - N/A   Clear
2:51 PM 75.2 °F 51.8 °F 44% 29.98 in 10.0 mi Calm Calm - N/A   Clear
3:11 PM 75.2 °F 53.6 °F 47% 29.98 in 10.0 mi Calm Calm - N/A   Clear
3:31 PM 75.2 °F 53.6 °F 47% 29.97 in 7.0 mi Calm Calm - N/A   Clear
3:51 PM 75.2 °F 55.4 °F 50% 29.96 in 10.0 mi Calm Calm - N/A   Clear
4:12 PM 75.2 °F 55.4 °F 50% 29.96 in 10.0 mi Calm Calm - N/A   Clear
4:33 PM 75.2 °F 55.4 °F 50% 29.96 in 10.0 mi Calm Calm - N/A   Clear
4:53 PM 73.4 °F 57.2 °F 57% 29.96 in 10.0 mi Calm Calm - N/A   Clear
5:11 PM 73.4 °F 57.2 °F 57% 29.96 in 10.0 mi Calm Calm - N/A   Clear
5:31 PM 73.4 °F 59.0 °F 61% 29.96 in 10.0 mi Calm Calm - N/A   Clear
5:51 PM 73.4 °F 59.0 °F 61% 29.96 in 10.0 mi Calm Calm - N/A   Clear
6:11 PM 73.4 °F 60.8 °F 65% 29.95 in 10.0 mi Calm Calm - N/A   Clear
6:31 PM 73.4 °F 60.8 °F 65% 29.96 in 10.0 mi Calm Calm - N/A Rain Light Rain
6:51 PM 71.6 °F 62.6 °F 73% 29.96 in 10.0 mi Calm Calm - N/A   Drizzle
7:11 PM 69.8 °F 62.6 °F 78% 29.95 in 7.0 mi Calm Calm - N/A Rain Rain
7:31 PM 69.8 °F 62.6 °F 78% 29.94 in 10.0 mi Calm Calm - N/A Rain Light Rain
7:52 PM 68.0 °F 60.8 °F 78% 29.93 in 10.0 mi Calm Calm - N/A Rain Light Rain
8:11 PM 68.0 °F 60.8 °F 78% 29.90 in 10.0 mi ESE 11.5 mph - N/A   Clear
8:30 PM 66.2 °F 60.8 °F 83% 29.91 in 10.0 mi ENE 6.9 mph - N/A   Clear
8:56 PM 66.2 °F 59.0 °F 78% 29.92 in 10.0 mi East 9.2 mph - N/A   Clear
9:53 PM 66.2 °F 59.0 °F 78% 29.95 in 10.0 mi ESE 8.1 mph - N/A   Mostly Cloudy
10:11 PM 68.0 °F 57.2 °F 68% 29.95 in 10.0 mi SE 8.1 mph - N/A   Overcast
10:31 PM 66.2 °F 57.2 °F 73% 29.95 in 10.0 mi East 4.6 mph - N/A   Overcast
10:51 PM 66.2 °F 59.0 °F 78% 29.95 in 10.0 mi East 6.9 mph - N/A   Overcast
11:31 PM 66.2 °F 59.0 °F 78% 29.94 in 10.0 mi ESE 6.9 mph - N/A   Overcast
11:52 PM 66.2 °F 59.0 °F 78% 29.94 in 10.0 mi Calm Calm - N/A   Overcast